Urbe Airport LIRU

Flugplatz Daten

Name: Urbe Airport

Ident: LIRU

Lat: 41,95190048

Long: 12,49890041

Platzhöhe: 55 ft

IataCode:

City: Roma

Metar

2021/12/03 15:50
LIRU 031550Z 36004KT 340V040 CAVOK 12/06 Q1007

Taf

Gewünschte Webcam nicht vorhanden? Dann fügen Sie eine hinzu. Sie wird dann so schnell wie möglich freigeschaltet
Url: Title: